PLATFORM,DATE (YYYY/MM/DD HH:MI:SS),LATITUDE (degree_north),LONGITUDE (degree_east),DEPH LEVEL1(meter),TEMP LEVEL1(degree_Celsius),DEPH LEVEL2(meter),NSCT LEVEL2(meter/second),EWCT LEVEL2(meter/second),QC,SVP_RCBN_Number,SVP_GNRL_ImmPercent,SVP_GNRL_BattVolt
6101659,2017/06/02 08:00:00,38.0330,4.2740,0.5,-5,,,,011104999,3,0,0
6101659,2017/06/02 08:32:31,38.0326,4.3979,0.5,26.84,50,-0.022798,5.56207,011102000,1,7,10
6101659,2017/06/02 09:02:16,38.0306,4.3642,0.5,27.24,50,-0.124588,-1.65357,011102000,1,7,10
6101659,2017/06/02 09:30:12,38.0251,4.2502,0.5,29.96,50,-0.3649,-5.95776,011102000,1,98,10
6101659,2017/06/02 10:00:03,38.0169,4.1301,0.5,26.84,50,-0.5091,-5.87408,011102000,1,98,10
6101659,2017/06/02 10:30:12,38.0106,4.0103,0.5,25.08,50,-0.387246,-5.80168,014401000,3,98,10.2
6101659,2017/06/02 11:00:12,38.0120,3.9324,0.5,26.44,50,0.086485,-3.79154,014402000,3,98,10.2
6101659,2017/06/02 11:30:22,38.0064,3.8577,0.5,26.68,50,-0.344029,-3.6158,014402000,1,98,10.2
6101659,2017/06/02 12:00:04,37.9975,3.7623,0.5,27.64,50,-0.555351,-4.69079,014402000,3,98,10.2
6101659,2017/06/02 12:30:39,37.9904,3.6637,0.5,33.8,50,-0.430237,-4.70862,014404000,3,98,10
6101659,2017/06/02 13:00:03,37.9845,3.5691,0.5,35.88,50,-0.37191,-4.69985,014404000,4,39,10
6101659,2017/06/02 13:30:08,37.9780,3.4734,0.5,35.88,50,-0.400425,-4.64689,014404000,4,39,10.2
6101659,2017/06/02 14:00:14,37.9720,3.3762,0.5,35.88,50,-0.369418,-4.71752,014404000,3,39,10.2
6101659,2017/06/02 14:30:40,37.9674,3.2786,0.5,35.88,50,-0.280119,-4.68539,011104000,3,39,10.2
6101659,2017/06/02 15:00:03,37.9616,3.1891,0.5,35.88,50,-0.365814,-4.45039,011104000,4,39,10.2
6101659,2017/06/02 15:30:08,37.9566,3.0942,0.5,35.88,50,-0.308019,-4.60944,011104000,4,39,10.2
6101659,2017/06/02 16:00:12,37.9513,2.9984,0.5,35.88,50,-0.326681,-4.65606,011104000,4,39,10.2
6101659,2017/06/02 16:30:03,37.9464,2.9109,0.5,35.8,50,-0.304218,-4.28383,011104000,4,39,10.2
6101659,2017/06/02 17:00:38,37.9462,2.9013,0.5,28.68,50,-0.012119,-0.458744,011102000,1,44,10.2
6101659,2017/06/02 17:30:39,37.9460,2.9017,0.5,27.8,50,-0.012348,0.019475,011102000,4,44,10.1
6101659,2017/06/02 18:00:12,37.9464,2.9064,0.5,25.4,50,0.025086,0.232447,011102000,4,44,10.1
6101659,2017/06/02 18:30:11,37.9465,2.9101,0.5,24.76,50,0.006181,0.180345,011101000,3,44,10.2
6101659,2017/06/02 19:00:13,37.9469,2.9131,0.5,23.72,50,0.024683,0.145982,011101000,3,44,10.2
6101659,2017/06/02 19:30:12,37.9490,2.9192,0.5,22.52,50,0.1298,0.29732,011101000,1,44,10.2
6101659,2017/06/02 20:00:20,37.9490,2.9191,0.5,22.04,50,0,-0.00485,011101000,1,44,10.2
6101659,2017/06/02 20:30:40,37.9235,2.8535,0.5,21.48,50,-1.55795,-3.16102,011101000,1,44,10.2
6101659,2017/06/02 21:00:12,37.8962,2.7787,0.5,21.32,50,-1.7131,-3.70329,014401000,1,17,10.2
6101659,2017/06/02 21:30:12,37.8681,2.7040,0.5,21.4,50,-1.73588,-3.64218,014401000,1,17,10.2
6101659,2017/06/02 22:00:12,37.8390,2.6242,0.5,21.4,50,-1.79765,-3.89236,014401000,1,17,10.2
6101659,2017/06/02 22:30:11,37.8215,2.6123,0.5,21.48,50,-1.08166,-0.580945,014401000,1,17,10.2
6101659,2017/06/02 23:00:03,37.8196,2.6109,0.5,21.48,50,-0.117896,-0.068622,011101000,5,17,10.2
6101659,2017/06/02 23:30:12,37.8175,2.6097,0.5,21.48,50,-0.129082,-0.058268,011101000,1,17,10.2
6101659,2017/06/03 00:00:12,37.8159,2.6094,0.5,21.48,50,-0.09884,-0.01464,014401000,1,17,10.2
6101659,2017/06/03 00:30:40,37.8140,2.6094,0.5,21.48,50,-0.115575,0,011101000,1,17,10.2
6101659,2017/06/03 01:00:12,37.8118,2.6099,0.5,21.48,50,-0.138052,0.024787,011101000,1,25,10.2
6101659,2017/06/03 01:30:12,37.8091,2.6109,0.5,21.48,50,-0.166792,0.048805,011101000,3,25,10.2
6101659,2017/06/03 02:00:12,37.8062,2.6120,0.5,21.4,50,-0.179147,0.053687,011101000,3,25,10.2
6101659,2017/06/03 02:30:07,37.8028,2.6131,0.5,21.4,50,-0.21062,0.053839,011101000,4,25,10.2
6101659,2017/06/03 03:00:12,37.7992,2.6141,0.5,21.4,50,-0.221774,0.048676,011101000,4,25,10.2
6101659,2017/06/03 03:30:15,37.7953,2.6148,0.5,21.4,50,-0.240521,0.034113,011101000,4,25,10.2
6101659,2017/06/03 04:00:40,37.7908,2.6150,0.5,21.4,50,-0.274179,0.00963,011101000,4,25,10.2
6101659,2017/06/03 04:30:12,37.7864,2.6152,0.5,21.4,50,-0.276105,0.009918,011101000,4,25,10.2
6101659,2017/06/03 05:00:12,37.7822,2.6155,0.5,21.4,50,-0.259455,0.014647,011101000,3,26,10.2
6101659,2017/06/03 05:30:03,37.7778,2.6157,0.5,21.32,50,-0.273176,0.009814,011101000,3,26,10.2
6101659,2017/06/03 06:00:12,37.7730,2.6160,0.5,21.32,50,-0.295045,0.014576,011101000,4,26,10.2
6101659,2017/06/03 06:30:41,37.7681,2.6150,0.5,21.32,50,-0.297898,-0.048057,011101000,4,26,10.2
6101659,2017/06/03 07:00:13,37.7630,2.6141,0.5,21.32,50,-0.320031,-0.044646,011101000,4,26,10.2
6101659,2017/06/03 07:30:13,37.7578,2.6128,0.5,21.32,50,-0.32123,-0.063489,011101000,1,26,10.2
6101659,2017/06/03 08:00:13,37.7529,2.6112,0.5,21.4,50,-0.302697,-0.078146,011101000,1,26,10.2
6101659,2017/06/03 08:30:13,37.7473,2.6093,0.5,21.4,50,-0.34594,-0.092805,011101000,1,26,10.2
6101659,2017/06/03 09:00:13,37.7417,2.6070,0.5,21.4,50,-0.34594,-0.112351,011101000,1,28,10.2
6101659,2017/06/03 09:30:13,37.7364,2.6050,0.5,21.4,50,-0.327407,-0.097704,011101000,1,28,10.2
6101659,2017/06/03 10:00:12,37.7310,2.6030,0.5,21.48,50,-0.33377,-0.097765,011101000,1,28,10.2
6101659,2017/06/03 10:30:41,37.7255,2.6009,0.5,21.56,50,-0.334375,-0.100977,011101000,1,28,10.2
6101659,2017/06/03 11:00:13,37.7205,2.5986,0.5,21.56,50,-0.313755,-0.11416,011101000,1,28,10.2
6101659,2017/06/03 11:30:13,37.7156,2.5960,0.5,21.64,50,-0.302697,-0.127051,011101000,5,28,10
6101659,2017/06/03 12:00:14,37.7107,2.5936,0.5,21.64,50,-0.302529,-0.117221,014401000,5,28,10
6101659,2017/06/03 12:30:14,37.7058,2.5912,0.5,21.64,50,-0.302697,-0.117294,011101000,3,28,10.2
6101659,2017/06/03 13:00:41,37.7006,2.5887,0.5,21.64,50,-0.316483,-0.120383,011101000,3,26,10.2
6101659,2017/06/03 13:30:13,37.6960,2.5860,0.5,21.72,50,-0.288655,-0.134058,011101000,3,26,10.2
6101659,2017/06/03 14:00:13,37.6915,2.5837,0.5,21.72,50,-0.277987,-0.112428,011101000,3,26,10.2
6101659,2017/06/03 14:30:41,37.6870,2.5817,0.5,21.72,50,-0.273729,-0.096272,011101000,5,26,10.2
6101659,2017/06/03 15:00:13,37.6826,2.5802,0.5,21.72,50,-0.276105,-0.07449,014401000,5,26,10.2
6101659,2017/06/03 15:30:13,37.6781,2.5791,0.5,21.72,50,-0.277987,-0.05378,011101000,5,26,10.2
6101659,2017/06/03 16:00:13,37.6732,2.5773,0.5,21.8,50,-0.302697,-0.088009,011101000,5,26,10.2
6101659,2017/06/03 16:30:12,37.6679,2.5754,0.5,21.72,50,-0.327589,-0.092956,011101000,1,26,10.2
6101659,2017/06/03 17:00:41,37.6625,2.5732,0.5,21.72,50,-0.328296,-0.105876,011101000,1,23,10.2
6101659,2017/06/03 17:30:12,37.6572,2.5711,0.5,21.72,50,-0.332769,-0.104381,011101000,1,23,10.2
6101659,2017/06/03 18:00:12,37.6520,2.5696,0.5,21.72,50,-0.32123,-0.073362,014401000,1,23,10.2
6101659,2017/06/03 18:30:03,37.6469,2.5682,0.5,21.72,50,-0.316635,-0.06882,011101000,1,23,10.2
6101659,2017/06/03 19:00:40,37.6412,2.5670,0.5,21.64,50,-0.345025,-0.057515,011101000,1,23,10.2
6101659,2017/06/03 19:30:12,37.6355,2.5660,0.5,21.64,50,-0.357681,-0.049691,011101000,1,23,10.2
6101659,2017/06/03 20:00:12,37.6296,2.5646,0.5,21.64,50,-0.364472,-0.068491,011101000,3,23,10.2
6101659,2017/06/03 20:30:12,37.6234,2.5634,0.5,21.64,50,-0.383005,-0.058711,011101000,1,23,10.2
6101659,2017/06/03 21:00:12,37.6173,2.5627,0.5,21.64,50,-0.376827,-0.034251,011101000,3,20,10.2
6101659,2017/06/03 21:30:12,37.6110,2.5625,0.5,21.64,50,-0.389182,-0.009787,011101000,3,20,10.2
6101659,2017/06/03 22:00:12,37.6045,2.5626,0.5,21.64,50,-0.401537,0.004894,011101000,1,20,10.2
6101659,2017/06/03 22:30:13,37.5976,2.5625,0.5,21.64,50,-0.426011,-0.004892,011101000,1,20,10.2
6101659,2017/06/03 23:00:45,37.5903,2.5633,0.5,21.64,50,-0.44308,0.038474,011101000,1,20,10.2
6101659,2017/06/03 23:30:42,37.5820,2.5617,0.5,21.64,50,-0.513588,-0.078455,011101000,1,20,10.2
6101659,2017/06/04 00:00:12,37.5744,2.5609,0.5,21.64,50,-0.477447,-0.03983,014401000,3,20,10.2
6101659,2017/06/04 00:30:12,37.5663,2.5597,0.5,21.64,50,-0.500377,-0.058756,011101000,3,20,10.2
6101659,2017/06/04 01:00:12,37.5580,2.5576,0.5,21.64,50,-0.512732,-0.102834,011101000,5,22,10.2
6101659,2017/06/04 01:30:13,37.5503,2.5554,0.5,21.64,50,-0.475403,-0.107683,011101000,5,22,10.2
6101659,2017/06/04 02:00:12,37.5428,2.5535,0.5,21.64,50,-0.46357,-0.093111,011101000,3,22,10.2
6101659,2017/06/04 02:30:40,37.5349,2.5519,0.5,21.64,50,-0.480547,-0.077174,011101000,3,22,10.2
6101659,2017/06/04 03:00:12,37.5271,2.5507,0.5,21.64,50,-0.489458,-0.059716,014401000,1,22,10.2
6101659,2017/06/04 03:30:12,37.5185,2.5493,0.5,21.64,50,-0.531265,-0.068592,011101000,3,22,10.2
6101659,2017/06/04 04:00:12,37.5097,2.5474,0.5,21.64,50,-0.54362,-0.0931,011101000,3,22,10.2
6101659,2017/06/04 04:30:11,37.5012,2.5451,0.5,21.56,50,-0.525379,-0.112776,011101000,4,22,10.2
6101659,2017/06/04 05:00:13,37.4924,2.5428,0.5,21.56,50,-0.543016,-0.112601,011101000,4,22,10.2
6101659,2017/06/04 05:30:40,37.4836,2.5407,0.5,21.56,50,-0.535586,-0.101415,011101000,4,22,10.2
6101659,2017/06/04 06:00:12,37.4756,2.5388,0.5,21.56,50,-0.502009,-0.094615,011101000,4,22,10.2
6101659,2017/06/04 06:30:12,37.4675,2.5365,0.5,21.56,50,-0.500377,-0.112764,011101000,5,22,10.2
6101659,2017/06/04 07:00:12,37.4594,2.5338,0.5,21.64,50,-0.500377,-0.13239,011101000,1,22,10.2
6101659,2017/06/04 07:30:12,37.4519,2.5306,0.5,21.64,50,-0.463312,-0.156923,011101000,1,22,10.2
6101659,2017/06/04 08:00:12,37.4443,2.5280,0.5,21.64,50,-0.46949,-0.127513,011101000,1,22,10.2
6101659,2017/06/04 08:30:40,37.4369,2.5253,0.5,21.72,50,-0.450133,-0.130402,011101000,1,22,10.1
6101659,2017/06/04 09:00:12,37.4296,2.5233,0.5,21.72,50,-0.458083,-0.099657,014401000,1,22,10.1
6101659,2017/06/04 09:30:12,37.4220,2.5214,0.5,21.72,50,-0.46949,-0.09321,011101000,3,22,10.1
6101659,2017/06/04 10:00:12,37.4152,2.5202,0.5,21.8,50,-0.42007,-0.058875,011101000,3,22,10.1
6101659,2017/06/04 10:30:12,37.4081,2.5189,0.5,21.88,50,-0.438602,-0.063787,011101000,3,22,9.9
6101659,2017/06/04 11:00:12,37.4007,2.5180,0.5,22.04,50,-0.457135,-0.044165,011101000,3,22,9.9
6101659,2017/06/04 11:30:40,37.3930,2.5179,0.5,22.36,50,-0.468381,-0.004833,011101000,4,22,10.1
6101659,2017/06/04 12:00:12,37.3854,2.5185,0.5,23.08,50,-0.476908,0.029915,014401000,4,22,10.1
6101659,2017/06/04 12:30:12,37.3772,2.5196,0.5,23.64,50,-0.506555,0.053996,011101000,1,22,10.1
6101659,2017/06/04 13:00:12,37.3689,2.5209,0.5,24.04,50,-0.512732,0.06382,011101000,1,20,10.1
6101659,2017/06/04 13:30:12,37.3605,2.5224,0.5,23.32,50,-0.51891,0.073647,011101000,1,20,10.1
6101659,2017/06/04 14:00:11,37.3520,2.5244,0.5,23.24,50,-0.525379,0.098262,011101000,1,20,10.1
6101659,2017/06/04 14:30:40,37.3431,2.5262,0.5,23,50,-0.54108,0.086995,011101000,6,20,10.1
6101659,2017/06/04 15:00:12,37.3346,2.5283,0.5,22.84,50,-0.533384,0.104771,011101000,4,20,10.1
6101659,2017/06/04 15:30:12,37.3259,2.5309,0.5,22.92,50,-0.537442,0.127713,011101000,4,20,10.2
6101659,2017/06/04 16:00:12,37.3169,2.5332,0.5,22.84,50,-0.555975,0.112991,011101000,1,20,10.2
6101659,2017/06/04 16:30:12,37.3076,2.5354,0.5,22.68,50,-0.574507,0.108091,011101000,1,20,10.1
6101659,2017/06/04 17:00:12,37.2983,2.5380,0.5,22.52,50,-0.574507,0.12776,011101000,3,19,10.1
6101659,2017/06/04 17:30:12,37.2889,2.5410,0.5,22.44,50,-0.580685,0.147434,011101000,3,19,10.1
6101659,2017/06/04 18:00:12,37.2789,2.5449,0.5,22.52,50,-0.61775,0.191688,014401000,1,19,10.1
6101659,2017/06/04 18:30:14,37.2698,2.5465,0.5,22.68,50,-0.561528,0.078564,011101000,1,19,10.2
6101659,2017/06/04 19:00:33,37.2604,2.5485,0.5,22.68,50,-0.574619,0.097299,011101000,1,19,10.2
6101659,2017/06/04 19:30:12,37.2515,2.5511,0.5,22.52,50,-0.556287,0.129349,011101000,4,19,10.2
6101659,2017/06/04 20:00:12,37.2425,2.5541,0.5,22.44,50,-0.555975,0.147525,011101000,1,19,10.2
6101659,2017/06/04 20:30:12,37.2339,2.5573,0.5,22.28,50,-0.531265,0.157378,011101000,1,19,10.1
6101659,2017/06/04 21:00:12,37.2254,2.5608,0.5,22.2,50,-0.525087,0.172152,014401000,1,22,10.1
6101659,2017/06/04 21:30:12,37.2171,2.5640,0.5,22.12,50,-0.512732,0.157414,011101000,1,22,10.2
6101659,2017/06/04 22:00:12,37.2095,2.5678,0.5,22.12,50,-0.46949,0.186948,011101000,1,22,10.2
6101659,2017/06/04 22:30:03,37.2022,2.5723,0.5,22.12,50,-0.453223,0.222521,011101000,3,22,10.2
6101659,2017/06/04 23:00:40,37.1946,2.5769,0.5,22.12,50,-0.460033,0.221792,011101000,3,22,10.2
6101659,2017/06/04 23:30:12,37.1875,2.5821,0.5,21.96,50,-0.445533,0.259943,011101000,3,22,10.1
6101659,2017/06/05 00:00:12,37.1805,2.5876,0.5,21.88,50,-0.432425,0.270688,014401000,1,22,10.1
6101659,2017/06/05 00:30:11,37.1735,2.5936,0.5,21.8,50,-0.432665,0.295488,011101000,1,22,10.1
6101659,2017/06/05 01:00:04,37.1673,2.5999,0.5,21.8,50,-0.3845,0.311328,011101000,1,22,10.1
6101659,2017/06/05 01:30:13,37.1609,2.6064,0.5,21.88,50,-0.393393,0.318396,011101000,1,22,10.2
6101659,2017/06/05 02:00:31,37.1551,2.6131,0.5,21.88,50,-0.354747,0.326595,011101000,5,22,10.2
6101659,2017/06/05 02:30:13,37.1495,2.6199,0.5,21.88,50,-0.349434,0.338191,011101000,5,22,10.2
6101659,2017/06/05 03:00:13,37.1441,2.6272,0.5,21.88,50,-0.333585,0.359454,014401000,1,22,10.2
6101659,2017/06/05 03:30:13,37.1389,2.6346,0.5,21.8,50,-0.32123,0.364403,011101000,5,22,10.1
6101659,2017/06/05 04:00:13,37.1338,2.6427,0.5,21.8,50,-0.315052,0.398901,011101000,5,22,10.1
6101659,2017/06/05 04:30:13,37.1284,2.6513,0.5,21.8,50,-0.333585,0.423554,011101000,4,22,10.2
6101659,2017/06/05 05:00:13,37.1232,2.6601,0.5,21.72,50,-0.32123,0.433435,011101000,3,26,10.2
6101659,2017/06/05 05:30:41,37.1181,2.6690,0.5,21.72,50,-0.310227,0.431675,011101000,3,26,10.2
6101659,2017/06/05 06:00:13,37.1129,2.6778,0.5,21.72,50,-0.326306,0.440343,014401000,4,26,10.2
6101659,2017/06/05 06:30:14,37.1074,2.6868,0.5,21.72,50,-0.339574,0.443131,011101000,3,26,10.1
6101659,2017/06/05 07:00:13,37.1022,2.6959,0.5,21.72,50,-0.321408,0.448584,011101000,3,26,10.1
6101659,2017/06/05 07:30:13,37.0972,2.7054,0.5,21.72,50,-0.308875,0.468074,011101000,1,26,10.2
6101659,2017/06/05 08:00:13,37.0925,2.7149,0.5,21.72,50,-0.290342,0.468104,011101000,3,26,10.2
6101659,2017/06/05 08:31:05,37.0879,2.7247,0.5,21.72,50,-0.276186,0.469356,011101000,1,26,10.1
6101659,2017/06/05 09:00:13,37.0838,2.7342,0.5,21.72,50,-0.260812,0.482086,011101000,1,25,10.1
6101659,2017/06/05 09:30:13,37.0799,2.7444,0.5,21.8,50,-0.240922,0.502682,011101000,1,25,9.9
6101659,2017/06/05 10:00:13,37.0765,2.7542,0.5,21.8,50,-0.210035,0.482992,011101000,3,25,9.9
6101659,2017/06/05 10:30:13,37.0734,2.7634,0.5,21.88,50,-0.191502,0.45344,011101000,3,25,10.2
6101659,2017/06/05 11:00:12,37.0707,2.7735,0.5,21.88,50,-0.166885,0.498094,011101000,3,25,10.2
6101659,2017/06/05 11:31:05,37.0677,2.7839,0.5,21.96,50,-0.180024,0.497961,011101000,3,25,10.2
6101659,2017/06/05 12:00:11,37.0650,2.7943,0.5,21.96,50,-0.171951,0.528498,014401000,4,25,10.2
6101659,2017/06/05 12:30:12,37.0623,2.8049,0.5,21.88,50,-0.1667,0.52223,011101000,3,25,10.2
6101659,2017/06/05 13:00:12,37.0604,2.8150,0.5,21.96,50,-0.117372,0.497888,011101000,4,30,10.2
6101659,2017/06/05 13:30:12,37.0579,2.8258,0.5,21.96,50,-0.154437,0.532411,011101000,5,30,10.1
6101659,2017/06/05 14:00:13,37.0564,2.8367,0.5,21.96,50,-0.092611,0.537056,011101000,5,30,10.1
6101659,2017/06/05 14:30:31,37.0548,2.8478,0.5,21.96,50,-0.097861,0.541807,011101000,3,30,10.1
6101659,2017/06/05 15:00:12,37.0535,2.8582,0.5,21.96,50,-0.081164,0.518195,014401000,6,30,10.1
6101659,2017/06/05 15:30:06,37.0525,2.8689,0.5,21.96,50,-0.061982,0.529288,011101000,1,30,10.1
6101659,2017/06/05 16:00:12,37.0517,2.8795,0.5,21.96,50,-0.049256,0.520863,011101000,1,30,10.1
6101659,2017/06/05 16:30:40,37.0510,2.8910,0.5,22.04,50,-0.04258,0.558292,011101000,1,30,10.2
6101659,2017/06/05 17:00:03,37.0504,2.9021,0.5,21.96,50,-0.037843,0.558746,011101000,1,26,10.2
6101659,2017/06/05 17:30:17,37.0497,2.9134,0.5,22.04,50,-0.042909,0.552826,011101000,4,26,10.1
6101659,2017/06/05 18:00:12,37.0492,2.9244,0.5,22.04,50,-0.030974,0.54385,014401000,3,26,10.1
6101659,2017/06/05 18:30:04,37.0487,2.9354,0.5,21.96,50,-0.031025,0.544764,011101000,4,26,10.1
6101659,2017/06/05 19:00:40,37.0484,2.9458,0.5,21.96,50,-0.018169,0.502709,011101000,4,26,10.1
6101659,2017/06/05 19:30:03,37.0479,2.9558,0.5,21.96,50,-0.031536,0.503392,011101000,1,26,10.1
6101659,2017/06/05 20:00:12,37.0480,2.9662,0.5,21.96,50,0.006147,0.510216,011101000,1,26,10.1
6101659,2017/06/05 20:30:12,37.0482,2.9761,0.5,21.96,50,0.012355,0.488114,011101000,1,26,10.1
6101659,2017/06/05 21:00:12,37.0486,2.9860,0.5,21.88,50,0.02471,0.488112,011101000,1,25,10.1
6101659,2017/06/05 21:30:10,37.0492,2.9953,0.5,21.88,50,0.037106,0.459037,011101000,1,25,10.2
6101659,2017/06/05 22:00:03,37.0500,3.0042,0.5,21.88,50,0.049613,0.440514,011101000,1,25,10.2
6101659,2017/06/05 22:30:15,37.0511,3.0131,0.5,21.88,50,0.067502,0.435889,011101000,1,25,10.1
6101659,2017/06/05 23:00:40,37.0524,3.0221,0.5,21.88,50,0.079207,0.43764,011101000,1,25,10.1
6101659,2017/06/05 23:30:12,37.0538,3.0315,0.5,21.88,50,0.087852,0.470754,011101000,4,25,10.1
6101659,2017/06/06 00:00:12,37.0553,3.0411,0.5,21.88,50,0.092662,0.473282,014401000,4,25,10.1
6101659,2017/06/06 00:30:12,37.0573,3.0509,0.5,21.88,50,0.12355,0.483131,011101000,3,25,10.1
6101659,2017/06/06 01:00:12,37.0592,3.0612,0.5,21.88,50,0.117372,0.507768,011101000,5,28,10.1
6101659,2017/06/06 01:30:12,37.0611,3.0718,0.5,21.88,50,0.117372,0.522544,011101000,4,28,10.1
6101659,2017/06/06 02:00:03,37.0629,3.0819,0.5,21.88,50,0.111754,0.500386,011101000,4,28,10.1
6101659,2017/06/06 02:30:58,37.0643,3.0922,0.5,21.8,50,0.083921,0.492678,011101000,4,28,10.1
6101659,2017/06/06 03:00:12,37.0657,3.1014,0.5,21.8,50,0.088753,0.465393,014401000,4,28,10.1
6101659,2017/06/06 03:30:13,37.0671,3.1108,0.5,21.8,50,0.086437,0.463093,011101000,1,28,10.1
6101659,2017/06/06 04:00:12,37.0685,3.1201,0.5,21.8,50,0.086533,0.458667,011101000,5,28,10.1
6101659,2017/06/06 04:30:12,37.0702,3.1288,0.5,21.8,50,0.105017,0.428829,011101000,5,28,10.2
6101659,2017/06/06 05:00:18,37.0720,3.1375,0.5,21.8,50,0.110826,0.427394,011101000,5,30,10.2
6101659,2017/06/06 05:30:40,37.0741,3.1462,0.5,21.8,50,0.128161,0.42363,011101000,5,30,10.1
6101659,2017/06/06 06:00:12,37.0761,3.1544,0.5,21.8,50,0.125502,0.410539,011101000,1,30,10.1
6101659,2017/06/06 06:30:03,37.0788,3.1634,0.5,21.8,50,0.167631,0.445797,011101000,1,30,10.1
6101659,2017/06/06 07:00:12,37.0806,3.1708,0.5,21.8,50,0.110642,0.362887,011101000,1,30,10.1
6101659,2017/06/06 07:30:12,37.0828,3.1789,0.5,21.88,50,0.135905,0.399189,011101000,1,30,10.1
6101659,2017/06/06 08:00:58,37.0850,3.1868,0.5,21.88,50,0.132518,0.37962,011101000,3,30,10.1
6101659,2017/06/06 08:30:12,37.0871,3.1943,0.5,21.96,50,0.13313,0.379291,011101000,3,30,9.6
6101659,2017/06/06 09:00:12,37.0895,3.2020,0.5,22.04,50,0.14826,0.379443,011101000,1,20,9.6
6101659,2017/06/06 09:30:12,37.0920,3.2097,0.5,22.2,50,0.154437,0.379431,011101000,1,20,10.1
6101659,2017/06/06 10:00:11,37.0943,3.2171,0.5,22.36,50,0.142161,0.364839,011101000,1,20,10.1
6101659,2017/06/06 10:30:05,37.0967,3.2247,0.5,22.52,50,0.145454,0.370278,011101000,1,20,10.1
6101659,2017/06/06 11:00:40,37.0989,3.2320,0.5,22.76,50,0.133313,0.352826,011101000,1,20,10.1
6101659,2017/06/06 11:30:12,37.1012,3.2390,0.5,23.4,50,0.144328,0.350345,011101000,5,20,10.1
6101659,2017/06/06 12:00:12,37.1036,3.2463,0.5,23.96,50,0.14826,0.359665,014401000,5,20,10.1
6101659,2017/06/06 12:30:12,37.1059,3.2537,0.5,24.6,50,0.142082,0.36458,011101000,3,20,10.1
6101659,2017/06/06 13:00:12,37.1080,3.2607,0.5,25.08,50,0.129727,0.344863,011101000,1,22,10.1
6101659,2017/06/06 13:30:12,37.1102,3.2673,0.5,24.92,50,0.135905,0.325148,011101000,1,22,10.1
6101659,2017/06/06 14:00:31,37.1124,3.2741,0.5,24.6,50,0.134485,0.331492,011101000,4,22,10.1
6101659,2017/06/06 14:30:12,37.1141,3.2808,0.5,24.36,50,0.106138,0.333577,011101000,4,22,10.1
6101659,2017/06/06 15:00:12,37.1160,3.2873,0.5,24.52,50,0.117372,0.320196,014401000,4,22,10.1
6101659,2017/06/06 15:30:12,37.1178,3.2937,0.5,24.04,50,0.111195,0.315262,011101000,4,22,10.1
6101659,2017/06/06 16:00:12,37.1197,3.3002,0.5,23.64,50,0.117372,0.32018,011101000,1,22,10.1
6101659,2017/06/06 16:30:13,37.1218,3.3065,0.5,23.4,50,0.129655,0.310148,011101000,1,22,10.1
6101659,2017/06/06 17:00:03,37.1236,3.3128,0.5,23.4,50,0.111816,0.312046,011101000,5,17,10.1
6101659,2017/06/06 17:30:12,37.1255,3.3171,0.5,23.16,50,0.116788,0.210742,011101000,1,17,10.1
6101659,2017/06/06 18:00:06,37.1262,3.3245,0.5,23.08,50,0.043387,0.365698,014401000,1,17,10.1
6101659,2017/06/06 18:30:40,37.1285,3.3285,0.5,22.76,50,0.139448,0.193359,011101000,5,17,10.1
6101659,2017/06/06 19:00:11,37.1301,3.3328,0.5,22.68,50,0.100458,0.21525,011101000,3,17,10.1
6101659,2017/06/06 19:30:12,37.1319,3.3370,0.5,22.6,50,0.111133,0.206737,011101000,3,17,10.1
6101659,2017/06/06 20:00:12,37.1337,3.3413,0.5,22.6,50,0.111195,0.211772,011101000,1,17,10.1
6101659,2017/06/06 20:30:13,37.1358,3.3454,0.5,22.44,50,0.129655,0.201805,011101000,1,17,10.1
6101659,2017/06/06 21:00:13,37.1378,3.3498,0.5,22.44,50,0.12355,0.216686,014401000,1,17,10.1
6101659,2017/06/06 21:30:13,37.1400,3.3542,0.5,22.36,50,0.135905,0.21668,011101000,1,17,10.1
6101659,2017/06/06 22:00:13,37.1422,3.3582,0.5,22.36,50,0.135905,0.196976,011101000,1,17,10.1
6101659,2017/06/06 22:30:41,37.1442,3.3629,0.5,22.36,50,0.121657,0.227895,011101000,1,17,10.1
6101659,2017/06/06 23:00:13,37.1462,3.3672,0.5,22.28,50,0.125502,0.215083,011101000,1,17,10.1
6101659,2017/06/06 23:30:13,37.1483,3.3717,0.5,22.2,50,0.129727,0.22158,011101000,1,17,10.1
6101659,2017/06/07 00:00:13,37.1503,3.3763,0.5,22.28,50,0.12355,0.226498,014401000,1,17,10.1
6101659,2017/06/07 00:30:13,37.1529,3.3810,0.5,22.2,50,0.160615,0.231415,011101000,1,17,10.1
6101659,2017/06/07 01:00:13,37.1550,3.3857,0.5,22.28,50,0.129727,0.231407,011101000,1,17,10.1
6101659,2017/06/07 01:30:41,37.1571,3.3906,0.5,22.2,50,0.12774,0.237553,011101000,1,17,10.1
6101659,2017/06/07 02:00:13,37.1593,3.3954,0.5,22.12,50,0.138052,0.240052,011101000,1,17,10.1
6101659,2017/06/07 02:30:05,37.1617,3.4000,0.5,22.12,50,0.148922,0.227475,011101000,1,17,10.1
6101659,2017/06/07 03:00:13,37.1637,3.4049,0.5,22.12,50,0.123003,0.240159,014401000,1,17,10.1
6101659,2017/06/07 03:30:13,37.1655,3.4098,0.5,22.12,50,0.111195,0.24122,011101000,1,17,10.1
6101659,2017/06/07 04:00:13,37.1672,3.4147,0.5,22.04,50,0.105017,0.241215,011101000,1,17,10.1
6101659,2017/06/07 04:30:41,37.1684,3.4194,0.5,22.04,50,0.072994,0.227821,011101000,1,17,10.1
6101659,2017/06/07 05:00:13,37.1694,3.4237,0.5,22.04,50,0.062751,0.215016,011101000,1,20,10.1
6101659,2017/06/07 05:30:04,37.1705,3.4280,0.5,21.96,50,0.068294,0.212732,011101000,1,20,10.1
6101659,2017/06/07 06:00:04,37.1719,3.4324,0.5,21.96,50,0.086485,0.216587,014401000,1,20,10.1
6101659,2017/06/07 06:30:11,37.1729,3.4360,0.5,21.96,50,0.061536,0.176518,011101000,3,20,10.1
6101659,2017/06/07 07:00:08,37.1745,3.4395,0.5,21.96,50,0.099005,0.172567,011101000,1,20,10.1
6101659,2017/06/07 07:30:40,37.1762,3.4437,0.5,22.04,50,0.103183,0.20312,011101000,1,20,10.1
6101659,2017/06/07 08:00:12,37.1779,3.4478,0.5,22.04,50,0.106677,0.204993,011101000,1,20,10.1
6101659,2017/06/07 08:30:11,37.1797,3.4522,0.5,22.04,50,0.111257,0.216686,011101000,1,20,10.1
6101659,2017/06/07 09:00:12,37.1812,3.4562,0.5,22.04,50,0.092611,0.196764,014401000,1,34,10.1
6101659,2017/06/07 09:30:14,37.1824,3.4602,0.5,22.12,50,0.074048,0.196651,011101000,1,34,10.1
6101659,2017/06/07 10:00:12,37.1834,3.4639,0.5,22.12,50,0.061844,0.182305,011101000,1,34,10.1
6101659,2017/06/07 10:30:40,37.1845,3.4677,0.5,22.12,50,0.066912,0.184156,011101000,1,34,10.1
6101659,2017/06/07 11:00:12,37.1858,3.4712,0.5,22.12,50,0.081576,0.174975,011101000,1,34,10.1
6101659,2017/06/07 11:30:12,37.1870,3.4748,0.5,22.12,50,0.07413,0.177172,011101000,1,34,9.7
6101659,2017/06/07 12:00:12,37.1882,3.4785,0.5,22.12,50,0.07413,0.182091,014401000,1,34,10.1
6101659,2017/06/07 12:30:13,37.1896,3.4823,0.5,22.12,50,0.086437,0.186905,011101000,1,34,10.1
6101659,2017/06/07 13:00:07,37.1908,3.4859,0.5,22.2,50,0.074378,0.177756,011101000,1,22,10.1
6101659,2017/06/07 13:30:22,37.1919,3.4894,0.5,22.12,50,0.067391,0.170816,011101000,1,22,10.1